Regional Weather Roundup
Issued by NWS

Home | Current Version | Previous Version | Text Only | Print | Product List | Glossary Off
Versions: 1 2 3 4 5 6 7 8 9 10 11 12 13 14 15 16 17 18 19 20 21 22 23 24 25 26 27 28

000
ASUS45 KTFX 190910
RWRMT
MONTANA REGIONAL WEATHER ROUNDUP
NATIONAL WEATHER SERVICE GREAT FALLS MT
300 AM MDT TUE SEP 19 2017

NOTE: "FAIR" INDICATES FEW OR NO CLOUDS BELOW 12000 FEET WITH NO
SIGNIFICANT WEATHER AND/OR OBSTRUCTIONS TO VISIBILITY.

MTZ001>007-043-191000-
WEST OF THE DIVIDE

CITY           SKY/WX    TMP DP  RH WIND       PRES   REMARKS
KALISPELL      CLOUDY    42  41  96 CALM      29.71S
MISSOULA       CLOUDY    40  32  73 W5        29.74F
BUTTE          CLOUDY    39  36  89 CALM      29.72F
MULLAN PASS    FOG       32  30  92 VRB5      29.71S VSB 1/4
ANACONDA         N/A     36  36 100 N3        29.72F
DEER LODGE       N/A     37  36  93 CALM      29.74S
HAMILTON         N/A     43  36  75 S3        29.73F
LIBBY            N/A     43  43 100 W5        29.71S
PLAINS           N/A     42  38  86 CALM      29.76
$$

MTZ008-052>055-191000-
SOUTHWEST MONTANA

CITY           SKY/WX    TMP DP  RH WIND       PRES   REMARKS
BOZEMAN        CLOUDY    45  42  89 S6        29.71R
DILLON         CLOUDY    40  35  83 S13       29.71F
W YELLOWSTONE  LGT RAIN  37  37 100 VRB6      29.70R
ENNIS          LGT RAIN  39  37  93 S7        29.77R
THREE FORKS      N/A     44  41  89 S5        29.72F
TWIN BRIDGES     N/A     42  36  79 CALM      29.73
$$

MTZ009-010-012-014-046-048-049-054-191000-
EAST SLOPES AND CENTRAL MONTANA

CITY           SKY/WX    TMP DP  RH WIND       PRES   REMARKS
CUT BANK       PTCLDY    40  34  79 W9        29.63R
GREAT FALLS    CLOUDY    44  34  67 SW6       29.64R
MALMSTROM AFB  CLOUDY    46  36  67 SW12      29.64R
HELENA         CLOUDY    47  35  63 W14       29.67F
BOWMANS CRNR   MOCLDY    40  32  74 S6        29.63F
CHOTEAU          N/A     41  32  70 S8        29.64F
FAIRFIELD      MOCLDY    43  32  65 SW10      29.63R
POWER            N/A     40  34  80 SW7       29.64R
RAYNESFORD     MOCLDY    47  33  60 W14       29.63F
ULM            CLOUDY    45  34  66 W9        29.64F
$$

MTZ011-013-016-021-045-047-050-051-191000-
NORTH CENTRAL MONTANA

CITY           SKY/WX    TMP DP  RH WIND       PRES   REMARKS
HAVRE          CLOUDY    50  41  71 SW12      29.58F
LEWISTOWN      CLOUDY    45  41  86 NW5       29.61S
N BAR RANCH    CLOUDY    48  37  66 NW9       29.61F
CHINOOK          N/A     52  39  62 SW7       29.57F
DENTON           N/A     47  38  69 W18G25    29.57F
GEYSER         CLOUDY    45  36  72 NW8       29.63S
GRASS RANGE    CLOUDY    49  40  70 W9        29.56F
JUDITH GAP     MOCLDY    47  34  59 NW6       29.61F
WINIFRED       MOCLDY    46  41  85 W10       29.60S
$$

MTZ017>020-022>027-061-062-191000-
NORTHEAST MONTANA

CITY           SKY/WX    TMP DP  RH WIND       PRES   REMARKS
GLASGOW        CLOUDY    57  48  72 NW10      29.53S
JORDAN           N/A     56  48  74 CALM      29.55S
SIDNEY         CLOUDY    62  45  53 S3        29.47F
WOLF POINT     CLOUDY    56  46  69 W8        29.50S
MALTA          MOCLDY    52  43  71 CALM      29.55F
PLENTYWOOD       N/A     57  46  67 E3        29.52F
POPLAR           N/A     55  46  71 NE6       29.50F
SCOBEY           N/A     57  41  55 CALM      29.54F
$$

MTZ028>42-056>058-191000-
SOUTHCENTRAL AND SOUTHEAST MONTANA

CITY           SKY/WX    TMP DP  RH WIND       PRES   REMARKS
BAKER          CLOUDY    61  44  53 SE20G29   29.47F
BILLINGS       CLOUDY    52  44  74 S7        29.59F
LIVINGSTON     LGT RAIN  44  42  93 W15       29.68R
MILES CITY     CLOUDY    60  44  55 NW13      29.52S
BIG TIMBER     CLOUDY    46  41  81 W29G37    29.65S
EKALAKA          N/A     64  37  36 SE10      29.53F
HARLOWTON      CLOUDY    47  36  66 MISG      29.61F
LAUREL           N/A     52  43  71 CALM      29.60F
$$

REGIONAL REPORTS...DAKOTAS

CITY           SKY/WX    TMP DP  RH WIND       PRES   REMARKS
WILLISTON      CLOUDY    62  43  49 E12       29.50F
MINOT          CLEAR     50  48  93 E8        29.65F
DICKINSON      MOCLDY    59  49  69 E15G25    29.51F
BEACH            N/A     59  45  58 SE18G25   29.50F
CROSBY           N/A     59  45  58 E10G17    29.55F
TIOGA            N/A     55  45  67 SE16G24   29.57F
WATFORD CITY     N/A     59  43  55 SE22G30   29.49F
BISMARCK       CLOUDY    55  50  83 E9        29.65F
GRAND FORKS    CLOUDY    59  59 100 SE12      29.79F FOG
FARGO          CLOUDY    60  60 100 SE10      29.80F FOG
BUFFALO SD       N/A     62  45  53 E8        29.45F
$$

REGIONAL REPORTS...WYOMING/IDAHO/WASHINGTON

CITY           SKY/WX    TMP DP  RH WIND       PRES   REMARKS
GILLETTE       CLOUDY    60  37  42 W10       29.60R
SHERIDAN       CLOUDY    61  39  44 W24G37    29.58F
BUFFALO WY     CLOUDY    57  38  48 N10       29.65S
CODY           CLOUDY    51  40  65 SW9       29.64F
YELLOWSTONE LA   N/A     36  36 100 VRB6      29.76S WCI  31
IDAHO FALLS    LGT RAIN  48  46  93 S21       29.76R
SALMON         CLOUDY    41  39  93 CALM      29.75F
BOISE          PTCLDY    46  43  89 SW3       29.81R
SPOKANE        MOCLDY    45  40  82 S9        29.70R
$$

REGIONAL REPORTS...ALBERTA

CITY           SKY/WX    TMP DP  RH WIND       PRES   REMARKS
EDMONTON       PTCLDY    45  41  87 W10G17    29.48F
CALGARY        MOCLDY    39  32  75 N8        29.57F
LETHBRIDGE     CLEAR     41  30  65 W14G20    29.57S
MEDICINE HAT   PTCLDY    45  41  87 SW9       29.50F
$$

REGIONAL REPORTS...SASKATCHEWAN

CITY           SKY/WX    TMP DP  RH WIND       PRES   REMARKS
SWIFT CURRENT  CLOUDY    50  46  87 W15       29.50S
REGINA         PTCLDY    59  46  63 SE15G22   29.55F
SASKATOON      CLOUDY    55  41  58 SE10      29.49F
$$




USA.gov is the U.S. government's official web portal to all federal, state and local government web resources and services.